Regional Weather Roundup
Issued by NWS

Home | Current Version | Previous Version | Text Only | Print | Product List | Glossary On
Versions: 1 2 3 4 5 6 7 8 9 10 11 12 13 14 15 16 17 18 19 20 21 22 23 24 25 26 27 28 29 30 31 32 33 34 35 36 37 38 39 40 41 42 43 44 45 46 47 48 49 50
000
ASUS45 KBOU 300207
RWRCO

WEATHER ROUNDUP FOR COLORADO
NATIONAL WEATHER SERVICE DENVER/BOULDER CO
800 PM MDT TUE JUL 29 2014

NOTE: "FAIR" INDICATES FEW OR NO CLOUDS BELOW 12000 FEET WITH NO
SIGNIFICANT WEATHER AND/OR OBSTRUCTIONS TO VISIBILITY.

COZ001>005-013-030-031-300300-
...NORTHWEST COLORADO...

CITY           SKY/WX    TMP DP  RH WIND       PRES   REMARKS
CRAIG          LGT RAIN  53  32  44 SW7       30.28R
HAYDEN         CLOUDY    57  52  82 NW21      30.28R THUNDER
MEEKER         RAIN      57  53  86 S9        30.30R FOG
MOUNT WERNER   NOT AVBL
STEAMBOAT SPGS CLOUDY    63  55  77 CALM      30.28R
WALDEN         CLOUDY    54  52  94 NW9       30.37R
$$

COZ006>008-011-300300-
...WEST CENTRAL VALLEYS...

CITY           SKY/WX    TMP DP  RH WIND       PRES   REMARKS
GRAND JUNCTION RAIN      62  57  83 N20       30.20R
MONTROSE       CLOUDY    69  59  70 E7        30.24S
EAGLE          CLOUDY    66  54  63 E7        30.27R
RIFLE          CLOUDY    69  58  67 NW8       30.20R
DELTA          CLOUDY    69  63  81 NE3       30.20R
NUCLA          DRIZZLE   64  59  82 E3        30.29S
$$

COZ017>023-064>068-300300-
...SOUTHWEST COLORADO...

CITY           SKY/WX    TMP DP  RH WIND       PRES   REMARKS
DURANGO        MOCLDY    72  47  40 N12       30.24R
CORTEZ         PTCLDY    73  51  46 NE7       30.21F
PAGOSA SPRINGS MOCLDY    66  47  51 NE5       30.32S
TELLURIDE      CLOUDY    55  52  88 E3        30.46F
WOLF CREEK PAS NOT AVBL
$$

COZ009-010-012-014-032>034-037-058>063-300300-
...CENTRAL COLORADO...

CITY           SKY/WX    TMP DP  RH WIND       PRES   REMARKS
ASPEN          MOCLDY    61  54  77 SW5       30.34R
BUENA VISTA    PTCLDY    66  46  48 NW8       30.32S
COPPER MTN     HAZE      48  43  81 W16       30.62R VSB 3/4
BERTHOUD PASS  HAZE      41  28  60 NW7       30.66R VSB<1/4
COTTONWOOD PAS PTCLDY    63  43  48 W10G17    30.45F
GUNNISON       MOCLDY    64  48  55 SW5       30.35S
KREMMLING      DRIZZLE   59  52  77 SW3       30.33R
LEADVILLE      MOCLDY    54  46  74 NW8       30.46R
MONARCH PASS   MOCLDY    46  43  87 W18       30.71S
SALIDA         PTCLDY    67  56  67 CALM      30.35S
SUNLIGHT       CLOUDY    52  45  76 SW3       30.56R
WILKERSON PASS CLOUDY    48  45  87 N3        30.59R
$$

COZ069>075-300300-
...SAN LUIS VALLEY/SANGRE DE CRISTO MOUNTAINS...

CITY           SKY/WX    TMP DP  RH WIND       PRES   REMARKS
ALAMOSA        TSTM      60  55  83 N12       30.34R
LA VETA PASS   MOCLDY    52  46  82 SW7G18    30.49R
SAGUACHE       CLOUDY    59  54  82 CALM      30.34F
$$

COZ035-036-038>040-300300-
...NORTHERN COLORADO FRONT RANGE...

CITY           SKY/WX    TMP DP  RH WIND       PRES   REMARKS
DENVER INTL AP HVY RAIN  62  60  93 NW10      30.24R VSB 1
DMNS CITY PARK   N/A     62  60  92 N5        30.24S
AURORA         LGT RAIN  60  60 100 E6        30.27R FOG
FRONT RANGE AP RAIN      64  63  94 NW8       30.25
ERIE MUNI ARPT CLOUDY    64  61  90 CALM      30.23R
BOULDER MUN AP RAIN      64  61  88 CALM      30.23R
CENTENNIAL     RAIN      59  55  87 E6        30.26S
BROOMFIELD     CLOUDY    63  59  88 CALM      30.26R
FORT COLLINS   CLOUDY    63  61  94 N12       30.24R
LONGMONT       CLOUDY    67  61  79 N5        30.24R
$$

COZ041-046-047-076>085-087-088-300300-
...PIKES PEAK/PALMER DIVIDE AND SOUTHERN FOOTHILLS...

CITY           SKY/WX    TMP DP  RH WIND       PRES   REMARKS
COLO. SPRINGS  CLOUDY    62  59  90 NE13      30.25R THUNDER
A. F. ACADEMY  LGT RAIN  61  59  94 N8        30.27R
ELLICOTT       TSTM      58  57  97 E21G26    30.23R
FALCON         LGT RAIN  57  56  96 NE12      30.30R
FORT CARSON    LGT RAIN  61  61 100 E6        30.23R
LIMON          LGT RAIN  61  59  93 SE6       30.22R
MONUMENT HILL  TSTM      55  54  94 N7        30.31R
TRINIDAD       MOCLDY    71  58  63 W10       30.15S
$$

COZ042>045-048>051-090-091-300300-
...NORTHEAST COLORADO...

CITY           SKY/WX    TMP DP  RH WIND       PRES   REMARKS
GREELEY ARPT   NOT AVBL
AKRON          TSTM      61  60  97 NE12      30.21R FOG
BURLINGTON     CLOUDY    69  65  86 SW7       30.13R
WRAY             N/A     66  64  94 SW10G21   30.14R THUNDER
STERLING       TSTM      66  64  94 SW6       30.18R
HOLYOKE        CLOUDY    75  59  57 E17       30.14S
FORT MORGAN    CLOUDY    62  60  93 N8        30.21R
$$

COZ086-089-092>099-300300-
...SOUTHEAST COLORADO...

CITY           SKY/WX    TMP DP  RH WIND       PRES   REMARKS
PUEBLO         MOCLDY    67  58  72 E21G29    30.12R
LA JUNTA       CLOUDY    69  66  90 E15       30.08R
LAMAR          LGT RAIN  69  66  90 N13       30.07R
SPRINGFIELD      N/A     68  65  90 NW5       30.13R
$$


USA.gov is the U.S. government's official web portal to all federal, state and local government web resources and services.